Weather History for Milton, FL

Change the Weather History Date:

Saturday, November 19, 2011

  Actual Average (KNSE) Record (KNSE)
Temperature  
Mean Temperature 62 °F -  
Max Temperature 70 °F 66 °F 79 °F (1998)
Min Temperature 53 °F 48 °F 26 °F (2008)
Degree Days  
Heating Degree Days 4    
Growing Degree Days 12 (Base 50)    
Moisture  
Dew Point 57 °F    
Average Humidity 82    
Maximum Humidity 94    
Minimum Humidity 70    
Precipitation  
Precipitation 0.01 in - - ()
Sea Level Pressure  
Sea Level Pressure 30.17 in    
Wind  
Wind Speed 8 mph (ESE)    
Max Wind Speed 14 mph    
Max Gust Speed -    
Visibility 10 miles    
Events      
Averages and records for this station are not official NWS values.
T = Trace of Precipitation, MM = Missing Value Source: NWS Daily Summary

Daily Weather History Graph

Daily Weather History Graph

Search for Another Location

Airport:

Trip Planner

Search our weather history database for the weather conditions in past years. The results will help you decide how hot, cold, wet, or windy it might be!

Date:

Astronomy

Nov. 19, 2011 Rise Set
Actual Time 6:17 AM CST 4:49 PM CST
Civil Twilight 5:51 AM CST 5:14 PM CST
Nautical Twilight 5:22 AM CST 5:43 PM CST
Astronomical Twilight 4:53 AM CST 6:12 PM CST
Moon 12:02 AM CST (11/19) 12:44 PM CST (11/19)
Length of Visible Light 11h 22m
Length of Day
10h 31m
Last Quarter, 38% of the Moon is Illuminated
Nov 19
Last Quarter
Nov 25
New
Dec 2
First Quarter
Dec 10
Full
Dec 17
Last Quarter

Hourly Weather History & Observations

Time (CST) Temp. Dew Point Humidity Pressure Visibility Wind Dir Wind Speed Gust Speed Precip Events Conditions
12:56 AM 55.9 °F 46.9 °F 72% 30.17 in 10.0 mi ESE 8.1 mph - N/A   Mostly Cloudy
1:56 AM 55.0 °F 46.9 °F 74% 30.17 in 10.0 mi East 9.2 mph - N/A   Scattered Clouds
2:56 AM 54.0 °F 48.0 °F 80% 30.17 in 10.0 mi East 4.6 mph - N/A   Mostly Cloudy
3:56 AM 53.1 °F 48.0 °F 83% 30.17 in 10.0 mi East 6.9 mph - N/A   Mostly Cloudy
4:56 AM 54.0 °F 48.0 °F 80% 30.17 in 10.0 mi East 9.2 mph - N/A   Overcast
5:56 AM 55.0 °F 48.9 °F 80% 30.17 in 10.0 mi East 9.2 mph - N/A   Overcast
6:56 AM 55.0 °F 48.9 °F 80% 30.19 in 10.0 mi East 8.1 mph - N/A   Overcast
7:56 AM 55.9 °F 50.0 °F 80% 30.19 in 10.0 mi East 8.1 mph - N/A   Overcast
8:56 AM 60.1 °F 51.1 °F 72% 30.20 in 10.0 mi ESE 9.2 mph - N/A   Mostly Cloudy
9:56 AM 60.1 °F 55.0 °F 83% 30.21 in 10.0 mi East 8.1 mph - 0.01 in   Overcast
10:56 AM 61.0 °F 55.0 °F 81% 30.19 in 10.0 mi ENE 6.9 mph - N/A   Overcast
11:37 AM 62.6 °F 57.2 °F 82% 30.21 in 10.0 mi East 9.2 mph - 0.00 in   Overcast
11:56 AM 64.0 °F 57.0 °F 78% 30.17 in 10.0 mi ESE 10.4 mph - 0.00 in   Overcast
12:18 PM 66.2 °F 57.2 °F 73% 30.18 in 10.0 mi East 11.5 mph - N/A   Overcast
12:56 PM 68.0 °F 57.9 °F 70% 30.13 in 10.0 mi East 10.4 mph - N/A   Overcast
1:56 PM 70.0 °F 60.1 °F 71% 30.12 in 10.0 mi SE 13.8 mph - N/A   Overcast
2:04 PM 69.8 °F 60.8 °F 73% 30.16 in 10.0 mi SE 10.4 mph - N/A   Overcast
2:56 PM 69.1 °F 62.1 °F 78% 30.12 in 10.0 mi SE 10.4 mph - N/A   Overcast
3:56 PM 69.1 °F 62.1 °F 78% 30.14 in 10.0 mi ESE 8.1 mph - N/A   Overcast
4:56 PM 68.0 °F 62.1 °F 81% 30.14 in 10.0 mi ESE 6.9 mph - N/A   Overcast
5:12 PM 66.2 °F 62.6 °F 88% 30.17 in 10.0 mi ESE 6.9 mph - N/A   Scattered Clouds
5:37 PM 66.2 °F 62.6 °F 88% 30.18 in 10.0 mi ESE 5.8 mph - N/A   Mostly Cloudy
5:56 PM 66.9 °F 62.1 °F 84% 30.15 in 10.0 mi ESE 4.6 mph - N/A   Overcast
6:56 PM 66.9 °F 63.0 °F 87% 30.16 in 10.0 mi ESE 8.1 mph - N/A   Overcast
7:56 PM 66.0 °F 63.0 °F 90% 30.17 in 10.0 mi ESE 5.8 mph - N/A   Overcast
8:56 PM 66.0 °F 63.0 °F 90% 30.17 in 10.0 mi ESE 9.2 mph - N/A   Overcast
9:38 PM 64.4 °F 62.6 °F 94% 30.21 in 10.0 mi ESE 5.8 mph - N/A   Overcast
9:56 PM 64.9 °F 63.0 °F 93% 30.17 in 10.0 mi ESE 4.6 mph - N/A   Overcast
10:56 PM 64.9 °F 62.1 °F 90% 30.16 in 10.0 mi ESE 8.1 mph - N/A   Mostly Cloudy
11:03 PM 64.4 °F 62.6 °F 94% 30.20 in 10.0 mi ESE 8.1 mph - N/A   Partly Cloudy
11:56 PM 64.0 °F 62.1 °F 93% 30.16 in 10.0 mi East 6.9 mph - N/A   Clear